Find Starlink 2699

NORAD ID: 48433 Int'l Des: 2021-040 Owner: SPXS Country: US Constellation: starlink operational
LEOCIRCULARSTARLINK_TYPE

現在のビュー

3D地球を読み込み中...

About Starlink 2699

Starlink 2699 (NORAD 48433) is a starlink constellation satellite (v1.0) launched May 9, 2021 by SPXS of US. It operates in LEO, CIRCULAR, STARLINK_TYPE orbit with a mass of 260.00 kg.

次回通過

Passes for default location (London). Set your location on the main map for personalized predictions.

高度履歴

Loading altitude history...

軌道要素

1 48433U 21040F 26265.43291970 -.00001803 00000-0 -46357-4 0 9998
2 48433 53.1602 317.0066 0001503 70.8182 289.2982 15.31697343297177
Epoch: Sep 22, 2026 • Age: 18 hours

現在のステータス

高度 489.2 km
遠地点 / 近地点 N/A
速度 7.62 km/s
衛星直下点 -50.88°S, 172.17°E
打ち上げ日 May 9, 2021
運用期間 5.3 years
タイプ internet

技術仕様

分類 Payload
質量 260.00 kg
乾燥質量 248.00 kg
長さ 0.20 m
スパン 9.00 m
形状 ? Box + pan
製造者 SPXS
バスタイプ Starlink
フェーズステータス In Orbit
所有者/国 SPXS/US

Most Searched